Location: Invercargill
(46.4000°S, 168.3500°E)
Time: 19:44:08
(UTC+12:00)

Cosmos 405 Rocket - Pass Details

Date: 14 May 2021
Orbit: 488 x 554 km, 81.3° (Epoch: 14 June)

Event Time Altitude Azimuth Distance (km) Brightness Sun altitude
Rises 18:11:08 0° 17° (NNE) 2,576 6.3 -8.1°
Reaches altitude 10° 18:13:25 10° 29° (NNE) 1,710 5.2 -8.5°
Maximum altitude 18:16:38 27° 88° (E) 999 3.6 -9.0°
Drops below altitude 10° 18:19:56 10° 147° (SSE) 1,760 4.9 -9.6°
Enters shadow 18:21:26 - 155° (SSE) 2,323 5.6 -9.8°
